Location: Kalisz
(51.7636°N, 18.0893°E)
Time: 01:38:12
(UTC+01:00)

ISS - Visible Passes

Search period start: 22 March 2019 00:00
Search period end: 01 April 2019 01:00
Orbit: 406 x 411 km, 51.6° (Epoch: 22 March)

Date Brightness Start Highest point End Pass type
(mag) Time Alt. Az. Time Alt. Az. Time Alt. Az.
22 Mar -2.2 19:38:50 10° SSW 19:40:45 21° SSE 19:40:45 21° SSE visible
23 Mar -1.9 18:48:38 10° S 18:50:39 15° SE 18:52:25 11° ESE visible
23 Mar -2.2 20:23:29 10° WSW 20:25:12 27° SW 20:25:12 27° SW visible
24 Mar -3.2 19:32:38 10° SW 19:35:45 39° SSE 19:36:40 31° ESE visible
24 Mar -1.0 21:08:51 10° W 21:09:26 14° W 21:09:26 14° W visible
25 Mar -2.6 18:41:58 10° SSW 18:44:49 27° SSE 18:47:41 10° E visible
25 Mar -3.7 20:17:48 10° WSW 20:20:44 65° SW 20:20:44 65° SW visible
26 Mar -3.8 19:26:47 10° WSW 19:30:03 61° SSE 19:31:55 23° E visible
26 Mar -1.6 21:03:16 10° W 21:04:40 23° W 21:04:40 23° W visible
27 Mar -4.0 20:12:10 10° W 20:15:29 89° S 20:15:45 74° E visible
28 Mar -3.9 19:21:04 10° WSW 19:24:23 82° S 19:26:45 18° E visible
28 Mar -2.1 20:57:38 10° W 20:59:30 31° W 20:59:30 31° W visible
29 Mar -3.9 20:06:31 10° W 20:09:51 87° S 20:10:27 57° E visible
29 Mar -0.5 21:43:08 10° W 21:43:10 10° W 21:43:10 10° W visible
30 Mar -3.8 19:15:24 10° W 19:18:42 90° NNW 19:21:22 15° E visible
30 Mar -2.4 20:51:59 10° W 20:54:05 34° W 20:54:05 34° W visible
31 Mar -3.8 21:00:49 10° W 21:04:07 71° SSW 21:04:59 45° SE visible
31 Mar -0.6 22:37:38 10° W 22:37:42 10° W 22:37:42 10° W visible
